Location: Unspecified
(0.0000°N, 0.0000°E)
Time: 05:10:56
(UTC+00:00)

ISS - Pass Details

Date: 11 July 2024
Orbit: 409 x 423 km, 51.6° (Epoch: 24 July)

Event Time Altitude Azimuth Distance (km) Brightness Sun altitude
Rises 05:11:23 0° 341° (NNW) 2,344 0.1 -12.5°
Reaches altitude 10° 05:13:38 10° 352° (N) 1,488 -0.8 -12.0°
Maximum altitude 05:16:35 29° 55° (NE) 800 -1.5 -11.3°
Drops below altitude 10° 05:19:33 10° 117° (ESE) 1,502 -0.3 -10.7°
Sets 05:21:50 0° 128° (SE) 2,371 0.5 -10.1°
